FW6013 Weather Reports


time (UTC)temp
C
wind
direction
speed
KPH
gust
KPH
rain 1hr
cm
rain 24hr
cm
rain mn
cm
humidity
%
barometer
mb
20260901192504 24 55 0.0 3.2 0.00 0.00 0.00 58 1016.1
20260901192004 23 65 1.6 6.4 0.00 0.00 0.00 59 1016.2
20260901191505 23 74 3.2 9.7 0.00 0.00 0.00 60 1016.1
20260901191004 22 90 0.0 9.7 0.00 0.00 0.00 61 1015.9
20260901190505 23 105 3.2 6.4 0.00 0.00 0.00 61 1016.0
20260901190004 22 130 1.6 6.4 0.00 0.00 0.00 61 1016.0
20260901185504 23 178 1.6 6.4 0.00 0.00 0.00 61 1016.1
20260901184005 22 136 0.0 6.4 0.00 0.00 0.00 64 1016.2
20260901183505 22 111 1.6 11.3 0.00 0.00 0.00 63 1016.1
20260901183005 22 88 3.2 11.3 0.00 0.00 0.00 64 1016.1
20260901182504 22 78 3.2 6.4 0.00 0.00 0.00 62 1016.1
20260901182004 22 110 3.2 6.4 0.00 0.00 0.00 63 1016.1
20260901181504 22 141 1.6 6.4 0.00 0.00 0.00 64 1016.1
20260901180504 22 344 1.6 11.3 0.00 0.00 0.00 65 1016.0
20260901180004 21 310 6.4 11.3 0.00 0.00 0.00 69 1016.2
20260901175504 21 168 3.2 9.7 0.00 0.00 0.00 68 1016.1
20260901175005 20 162 3.2 9.7 0.00 0.00 0.00 70 1016.3
20260901174505 21 164 3.2 9.7 0.00 0.00 0.00 70 1016.3
20260901172004 20 122 3.2 11.3 0.00 0.00 0.00 73 1016.9
20260901171504 19 157 4.8 11.3 0.00 0.00 0.00 74 1017.1
20260901170505 18 146 4.8 12.9 0.00 0.00 0.00 77 1017.2
20260901170005 20 147 4.8 12.9 0.00 0.00 0.00 73 1017.2
20260901165005 18 147 11.3 12.9 0.00 0.00 0.00 76 1017.4
20260901164505 19 139 3.2 12.9 0.00 0.00 0.00 75 1017.4
20260901163504 18 139 8.0 12.9 0.00 0.00 0.00 79 1017.4
20260901162505 18 159 3.2 14.5 0.00 0.00 0.00 78 1017.7
20260901162005 18 185 4.8 14.5 0.00 0.00 0.00 79 1018.0
20260901161504 18 174 4.8 14.5 0.00 0.00 0.00 77 1017.9
20260901161004 18 168 3.2 12.9 0.00 0.00 0.00 80 1018.2
20260901160505 17 152 6.4 14.5 0.00 0.00 0.00 80 1018.4
20260901160005 17 133 6.4 14.5 0.00 0.00 0.00 79 1018.3
20260901155005 17 134 6.4 17.7 0.00 0.00 0.00 81 1018.5
20260901154505 17 156 4.8 14.5 0.00 0.00 0.00 80 1018.5
20260901154005 17 159 3.2 11.3 0.00 0.00 0.00 80 1018.7
20260901153004 17 149 8.0 14.5 0.00 0.00 0.00 82 1019.0
20260901151504 17 149 6.4 12.9 0.00 0.00 0.00 81 1018.9
20260901151005 17 161 6.4 12.9 0.00 0.00 0.00 82 1019.0
20260901150505 17 148 4.8 17.7 0.00 0.00 0.00 81 1019.0
20260901150005 16 139 4.8 17.7 0.00 0.00 0.00 83 1019.2
20260901145504 17 130 12.9 17.7 0.00 0.00 0.00 80 1019.2
20260901145004 17 130 6.4 14.5 0.00 0.00 0.00 80 1019.2
20260901144504 17 150 6.4 12.9 0.00 0.00 0.00 81 1019.1
20260901143504 17 179 4.8 11.3 0.00 0.00 0.00 82 1019.3
20260901142505 17 207 6.4 17.7 0.00 0.00 0.00 80 1019.2
20260901141505 17 182 3.2 14.5 0.00 0.00 0.00 80 1019.1
20260901141004 17 181 6.4 14.5 0.00 0.00 0.00 80 1019.1
20260901140504 17 186 6.4 12.9 0.00 0.00 0.00 82 1019.1
20260901140004 17 206 6.4 11.3 0.00 0.00 0.00 84 1019.2
20260901135504 17 205 6.4 12.9 0.00 0.00 0.00 84 1019.1
20260901135004 17 192 4.8 12.9 0.00 0.00 0.00 85 1018.9
20260901134505 17 188 8.0 12.9 0.00 0.00 0.00 84 1019.1
20260901134005 17 172 6.4 12.9 0.00 0.00 0.00 82 1019.0
20260901133004 17 182 8.0 17.7 0.00 0.00 0.00 82 1018.7
20260901132504 17 181 8.0 12.9 0.00 0.00 0.00 83 1018.9
20260901131505 16 186 6.4 12.9 0.00 0.00 0.00 86 1019.0
20260901131004 16 193 6.4 12.9 0.00 0.00 0.00 86 1018.7
20260901124505 15 201 6.4 11.3 0.00 0.00 0.00 92 1018.4
20260901124005 15 199 3.2 11.3 0.00 0.00 0.00 93 1018.2
20260901123505 14 203 6.4 11.3 0.00 0.00 0.00 94 1018.2
20260901122504 14 174 4.8 9.7 0.00 0.00 0.00 96 1018.3
20260901122004 14 163 3.2 9.7 0.00 0.00 0.00 96 1017.9
20260901121505 14 165 6.4 11.3 0.00 0.00 0.00 96 1017.9
20260901121005 13 167 3.2 12.9 0.00 0.00 0.00 96 1017.8
20260901120504 13 174 8.0 12.9 0.00 0.00 0.00 96 1017.8
20260901120004 14 182 4.8 9.7 0.00 0.00 0.00 96 1017.7
20260901115505 13 176 3.2 11.3 0.00 0.00 0.00 96 1017.6
20260901115005 13 177 3.2 11.3 0.00 0.00 0.00 96 1017.5
20260901113505 13 177 3.2 9.7 0.00 0.00 0.00 96 1017.5
20260901112504 13 163 3.2 11.3 0.00 0.00 0.00 96 1017.5
20260901112005 13 170 4.8 11.3 0.00 0.00 0.00 96 1017.3
20260901111504 13 171 6.4 9.7 0.00 0.00 0.00 96 1017.1
20260901110505 13 190 3.2 9.7 0.00 0.00 0.00 96 1017.2
20260901110005 13 172 1.6 9.7 0.00 0.00 0.00 96 1017.0
20260901105505 13 170 3.2 9.7 0.00 0.00 0.00 96 1016.9
20260901105004 13 179 3.2 9.7 0.00 0.00 0.00 96 1016.9
20260901104505 13 177 3.2 6.4 0.00 0.00 0.00 96 1017.0
20260901104005 13 177 4.8 9.7 0.00 0.00 0.00 96 1017.0
20260901103505 13 166 4.8 9.7 0.00 0.00 0.00 96 1016.7
20260901103005 13 154 1.6 6.4 0.00 0.00 0.00 96 1016.8
20260901102505 13 170 4.8 9.7 0.00 0.00 0.00 96 1016.8
20260901101504 13 167 3.2 11.3 0.00 0.00 0.00 96 1016.8
20260901101004 13 170 3.2 11.3 0.00 0.00 0.00 96 1016.4
20260901100005 13 166 3.2 6.4 0.00 0.00 0.00 96 1016.4
20260901095505 13 169 3.2 6.4 0.00 0.00 0.00 96 1016.3
20260901095005 13 166 3.2 6.4 0.00 0.00 0.00 96 1016.3
20260901094504 13 160 3.2 9.7 0.00 0.00 0.00 96 1016.2
20260901094004 13 152 3.2 9.7 0.00 0.00 0.00 96 1016.2
20260901093504 13 148 4.8 9.7 0.00 0.00 0.00 96 1016.1
20260901093005 13 160 4.8 6.4 0.00 0.00 0.00 96 1016.0
20260901092505 14 169 3.2 6.4 0.00 0.00 0.00 96 1015.8
20260901092005 14 167 3.2 12.9 0.00 0.00 0.00 96 1015.8
20260901091505 14 172 4.8 12.9 0.00 0.00 0.00 96 1016.1
20260901091004 14 178 8.0 12.9 0.00 0.00 0.00 96 1015.9
20260901090005 14 176 3.2 11.3 0.00 0.00 0.00 95 1015.8
20260901085005 14 186 6.4 12.9 0.00 0.00 0.00 95 1015.8
20260901084505 14 188 6.4 12.9 0.00 0.00 0.00 95 1015.8
20260901083504 14 178 6.4 14.5 0.00 0.00 0.00 95 1015.7
20260901083004 14 184 6.4 14.5 0.00 0.00 0.00 95 1015.9
20260901082504 14 183 4.8 12.9 0.00 0.00 0.00 94 1015.7
20260901082004 15 190 6.4 12.9 0.00 0.00 0.00 94 1015.8
20260901080505 15 194 6.4 12.9 0.00 0.00 0.00 93 1015.7
20260901080005 15 183 6.4 11.3 0.00 0.00 0.00 94 1015.7
20260901075505 15 190 3.2 11.3 0.00 0.00 0.00 94 1015.6
20260901075004 15 182 3.2 6.4 0.00 0.00 0.00 94 1015.6
20260901074004 15 187 3.2 11.3 0.00 0.00 0.00 94 1015.4
20260901073504 15 187 6.4 11.3 0.00 0.00 0.00 94 1015.6
20260901073005 15 190 6.4 11.3 0.00 0.00 0.00 94 1015.5
20260901072005 15 189 3.2 6.4 0.00 0.00 0.00 94 1015.4
20260901071505 15 196 3.2 6.4 0.00 0.00 0.00 94 1015.6
20260901071005 15 210 3.2 6.4 0.00 0.00 0.00 94 1015.4
20260901070505 15 216 3.2 6.4 0.00 0.00 0.00 94 1015.3
20260901070005 15 207 3.2 6.4 0.00 0.00 0.00 94 1015.5
20260901065505 15 192 1.6 6.4 0.00 0.00 0.00 94 1015.5
20260901065004 15 183 3.2 6.4 0.00 0.00 0.00 94 1015.4
20260901064005 15 179 3.2 9.7 0.00 0.00 0.00 94 1015.4
20260901063504 15 165 3.2 9.7 0.00 0.00 0.00 94 1015.5
20260901062504 16 162 3.2 9.7 0.00 0.00 0.00 94 1015.7
20260901062004 16 164 3.2 9.7 0.00 0.00 0.00 94 1015.7
20260901061505 16 169 3.2 6.4 0.00 0.00 0.00 94 1015.7
20260901061005 16 166 3.2 9.7 0.00 0.00 0.00 94 1015.5
20260901060505 16 176 3.2 9.7 0.00 0.00 0.00 94 1015.6
20260901060004 16 183 4.8 12.9 0.00 0.00 0.00 94 1015.5
20260901055504 16 171 6.4 12.9 0.00 0.00 0.00 94 1015.6
20260901055005 16 162 3.2 11.3 0.00 0.00 0.00 94 1015.4
20260901054505 16 167 6.4 11.3 0.00 0.00 0.00 94 1015.5
20260901054005 16 172 4.8 9.7 0.00 0.00 0.00 94 1015.7
20260901053504 16 175 3.2 9.7 0.00 0.00 0.00 94 1015.8
20260901053004 16 188 6.4 11.3 0.00 0.00 0.00 93 1015.8
20260901052504 16 195 4.8 12.9 0.00 0.00 0.00 93 1015.7
20260901052005 16 187 3.2 12.9 0.00 0.00 0.00 93 1015.8
20260901051505 16 185 3.2 12.9 0.00 0.00 0.00 93 1016.0
20260901050504 16 187 6.4 12.9 0.00 0.00 0.00 92 1015.9
20260901050005 16 193 6.4 12.9 0.00 0.00 0.00 92 1016.1
20260901045505 16 192 6.4 12.9 0.00 0.00 0.00 91 1016.1
20260901045005 16 185 4.8 11.3 0.00 0.00 0.00 91 1016.0
20260901044506 16 185 6.4 14.5 0.00 0.00 0.00 90 1015.9
20260901044005 16 186 6.4 14.5 0.00 0.00 0.00 89 1015.8
20260901043004 16 177 6.4 11.3 0.00 0.00 0.00 87 1015.7
20260901042505 16 190 4.8 11.3 0.00 0.00 0.00 87 1015.6
20260901042005 16 185 3.2 11.3 0.00 0.00 0.00 87 1015.3
20260901041504 16 175 3.2 11.3 0.00 0.00 0.00 87 1015.5
20260901035504 16 187 3.2 12.9 0.00 0.00 0.00 84 1015.2
20260901035005 17 183 6.4 12.9 0.00 0.00 0.00 83 1015.6
20260901034504 17 164 4.8 12.9 0.00 0.00 0.00 80 1015.8
20260901034004 17 164 3.2 12.9 0.00 0.00 0.00 79 1015.8
20260901033004 17 175 6.4 9.7 0.00 0.00 0.00 80 1015.4
20260901031004 17 155 6.4 11.3 0.00 0.00 0.00 83 1015.3
20260901030504 17 148 6.4 17.7 0.00 0.00 0.00 83 1015.2
20260901030006 17 156 4.8 17.7 0.00 0.00 0.00 82 1015.6
20260901025504 17 154 4.8 11.3 0.00 0.00 0.00 82 1015.4
20260901025004 17 128 4.8 14.5 0.00 0.00 0.00 82 1015.6
20260901024504 17 111 4.8 14.5 0.00 0.00 0.00 83 1015.6
20260901024005 17 122 6.4 11.3 0.00 0.00 0.00 84 1015.6
20260901023505 17 142 3.2 12.9 0.00 0.00 0.00 84 1015.8
20260901023005 17 141 4.8 12.9 0.00 0.00 0.00 83 1015.8
20260901022504 17 137 6.4 12.9 0.00 0.00 0.00 83 1015.9
20260901022004 17 148 3.2 11.3 0.00 0.00 0.00 83 1015.9
20260901021505 17 157 6.4 9.7 0.00 0.00 0.00 83 1015.9
20260901021005 17 145 4.8 9.7 0.00 0.00 0.00 83 1015.8
20260901020505 17 140 3.2 6.4 0.00 0.00 0.00 84 1015.8
20260901020004 17 157 4.8 6.4 0.00 0.00 0.00 84 1015.7
20260901015005 17 175 3.2 6.4 0.00 0.00 0.00 85 1015.8
20260901014505 17 163 3.2 6.4 0.00 0.00 0.00 85 1015.9
20260901014004 17 159 4.8 6.4 0.00 0.00 0.00 85 1015.9
20260901013004 17 156 1.6 9.7 0.00 0.00 0.00 86 1015.8
20260901012505 17 154 3.2 9.7 0.00 0.00 0.00 86 1015.7
20260901012005 17 152 6.4 9.7 0.00 0.00 0.00 86 1015.4
20260901011505 17 145 4.8 9.7 0.00 0.00 0.00 86 1015.4
20260901011005 17 143 3.2 9.7 0.00 0.00 0.00 86 1015.3
20260901010504 17 134 3.2 9.7 0.00 0.00 0.00 86 1015.3
20260901010004 17 130 4.8 9.7 0.00 0.00 0.00 86 1015.2
20260901005505 17 137 6.4 6.4 0.00 0.00 0.00 86 1015.2
20260901005005 17 147 3.2 6.4 0.00 0.00 0.00 86 1015.4
20260901004505 17 149 4.8 6.4 0.00 0.00 0.00 86 1015.3
20260901004005 17 143 3.2 11.3 0.00 0.00 0.00 86 1015.2
20260901003504 17 144 3.2 11.3 0.00 0.00 0.00 86 1015.2
20260901003004 17 152 3.2 6.4 0.00 0.00 0.00 86 1015.2
20260901002504 17 142 3.2 6.4 0.00 0.00 0.00 86 1015.1
20260901002005 17 137 3.2 11.3 0.00 0.00 0.00 86 1015.0
20260901001505 17 133 3.2 11.3 0.00 0.00 0.00 86 1014.7
20260901001004 17 123 4.8 14.5 0.00 0.00 0.00 86 1014.6
20260901000504 17 124 4.8 14.5 0.00 0.00 0.00 86 1014.6
20260901000005 17 139 6.4 12.9 0.00 0.00 0.00 86 1014.5
20260831235005 17 133 4.8 11.3 0.00 0.00 0.00 86 1014.1
20260831234505 17 135 6.4 14.5 0.00 0.00 0.00 86 1014.1
20260831234005 17 136 6.4 17.7 0.00 0.00 0.00 86 1014.1
20260831233504 17 132 8.0 17.7 0.00 0.00 0.00 86 1013.9
20260831233005 17 124 8.0 17.7 0.00 0.00 0.00 86 1013.6
20260831232505 17 136 6.4 17.7 0.00 0.00 0.00 86 1013.9
20260831232005 17 145 6.4 14.5 0.00 0.00 0.00 87 1013.8
20260831231005 17 146 8.0 14.5 0.00 0.00 0.00 87 1014.0
20260831230505 17 139 6.4 12.9 0.00 0.00 0.00 87 1013.6
20260831230005 17 132 6.4 11.3 0.00 0.00 0.00 88 1013.7
20260831225504 17 145 3.2 11.3 0.00 0.00 0.00 88 1013.6
20260831225004 17 146 3.2 9.7 0.00 0.00 0.00 88 1013.6
20260831224505 17 148 3.2 11.3 0.00 0.00 0.00 88 1013.5
20260831224005 17 148 6.4 11.3 0.00 0.00 0.00 88 1013.4
20260831222505 17 170 3.2 14.5 0.00 0.00 0.00 88 1013.1
20260831221504 17 176 3.2 12.9 0.00 0.00 0.00 88 1012.9
20260831221005 17 176 3.2 12.9 0.00 0.00 0.00 88 1012.9
20260831220505 17 184 6.4 12.9 0.00 0.00 0.00 88 1012.6
20260831220004 17 174 3.2 14.5 0.00 0.00 0.00 88 1012.7
20260831215504 17 163 4.8 14.5 0.00 0.00 0.00 88 1012.4
20260831215004 18 167 8.0 12.9 0.00 0.00 0.00 86 1012.4
20260831214505 18 173 3.2 11.3 0.00 0.00 0.00 86 1012.5
20260831213504 18 175 4.8 9.7 0.00 0.00 0.00 86 1012.2
20260831213005 18 171 3.2 9.7 0.00 0.00 0.00 86 1012.2
20260831212004 18 213 3.2 9.7 0.00 0.00 0.00 86 1011.9
20260831211504 18 201 3.2 11.3 0.00 0.00 0.00 86 1012.0
20260831211004 17 197 6.4 11.3 0.00 0.00 0.00 86 1012.1
20260831210004 17 202 4.8 12.9 0.00 0.00 0.00 85 1011.8
20260831205005 17 187 8.0 14.5 0.00 0.00 0.00 85 1011.9
20260831204505 17 185 6.4 14.5 0.00 0.00 0.00 85 1011.9
20260831203005 17 215 9.7 17.7 0.00 0.00 0.00 85 1011.7
20260831202504 17 206 6.4 17.7 0.00 0.00 0.00 85 1011.6
20260831202004 17 196 6.4 17.7 0.00 0.00 0.00 86 1011.6
20260831201505 17 206 6.4 17.7 0.00 0.00 0.00 85 1011.4
20260831201005 17 204 8.0 17.7 0.00 0.00 0.00 85 1011.4
20260831195505 18 198 11.3 17.7 0.00 0.00 0.00 85 1011.1
20260831195004 18 198 6.4 14.5 0.00 0.00 0.00 84 1011.1
20260831194005 18 189 8.0 14.5 0.00 0.00 0.00 83 1010.8
20260831193004 18 184 3.2 14.5 0.00 0.00 0.00 83 1010.8